Weather History for Wilmington, OH

Change the Weather History Date:

Sunday, October 28, 2012

  Actual Average (KDAY) Record (KDAY)
Temperature  
Mean Temperature 44 °F 50 °F  
Max Temperature 46 °F 60 °F 81 °F (1900)
Min Temperature 39 °F 41 °F 23 °F (1976)
Degree Days  
Heating Degree Days 22 15  
Month to date heating degree days 310  
Since 1 July heating degree days 400  
Cooling Degree Days 0 0  
Month to date cooling degree days 10  
Year to date cooling degree days 891  
Moisture  
Dew Point 36 °F    
Average Humidity 76    
Maximum Humidity 89    
Minimum Humidity 67    
Precipitation  
Precipitation 0.06 in 0.10 in 1.65 in (1984)
Month to date precipitation 2.63  
Year to date precipitation 34.24  
Snow  
Snow 0.00 in 0.00 in - ()
Month to date snowfall 0.2  
Since 1 July snowfall 0.2  
Since 1 September snowfall 0.2  
Snow Depth -    
Sea Level Pressure  
Sea Level Pressure 30.06 in    
Wind  
Wind Speed 14 mph (North)    
Max Wind Speed 25 mph    
Max Gust Speed 36 mph    
Visibility 10 miles    
Events Rain    
T = Trace of Precipitation, MM = Missing Value Source: NWS Daily Summary

Daily Weather History Graph

Daily Weather History Graph

Search for Another Location

Airport:

Trip Planner

Search our weather history database for the weather conditions in past years. The results will help you decide how hot, cold, wet, or windy it might be!

Date:

Astronomy

Oct. 28, 2012 Rise Set
Actual Time 7:59 AM EDT 6:37 PM EDT
Civil Twilight 7:31 AM EDT 7:05 PM EDT
Nautical Twilight 7:00 AM EDT 7:37 PM EDT
Astronomical Twilight 6:29 AM EDT 8:08 PM EDT
Moon 5:55 PM EDT (10/28) 6:51 AM EDT (10/28)
Length of Visible Light 11h 33m
Length of Day
10h 38m
Waxing Gibbous, 99% of the Moon is Illuminated
Oct 28
Waxing Gibbous
Oct 29
Full
Nov 6
Last Quarter
Nov 13
New
Nov 20
First Quarter

Hourly Weather History & Observations

Time (EDT) Temp. Windchill Dew Point Humidity Pressure Visibility Wind Dir Wind Speed Gust Speed Precip Events Conditions
12:54 AM 46.0 °F 40.6 °F 37.0 °F 71% 30.12 in 10.0 mi NNE 11.5 mph - N/A   Overcast
1:54 AM 45.0 °F 38.5 °F 37.0 °F 74% 30.10 in 10.0 mi North 13.8 mph 19.6 mph N/A   Overcast
2:54 AM 44.1 °F 39.0 °F 37.0 °F 76% 30.09 in 10.0 mi NNE 9.2 mph - N/A   Overcast
3:54 AM 44.1 °F 38.1 °F 37.0 °F 76% 30.08 in 10.0 mi NNE 11.5 mph 21.9 mph N/A   Overcast
4:54 AM 44.1 °F 37.4 °F 37.9 °F 79% 30.06 in 10.0 mi North 13.8 mph 23.0 mph N/A   Overcast
5:54 AM 44.1 °F 37.4 °F 37.9 °F 79% 30.07 in 10.0 mi North 13.8 mph 19.6 mph N/A   Overcast
6:50 AM 44.6 °F 37.8 °F 37.4 °F 76% 30.02 in 10.0 mi North 15.0 mph - N/A   Overcast
6:54 AM 44.1 °F 37.7 °F 37.0 °F 76% 30.07 in 10.0 mi North 12.7 mph - N/A   Overcast
7:54 AM 44.1 °F 36.5 °F 36.0 °F 73% 30.07 in 10.0 mi North 17.3 mph 26.5 mph N/A   Overcast
9:54 AM 43.0 °F 34.8 °F 36.0 °F 76% 30.09 in 10.0 mi North 18.4 mph 24.2 mph N/A   Overcast
10:54 AM 43.0 °F 35.4 °F 36.0 °F 76% 30.08 in 10.0 mi North 16.1 mph - N/A   Overcast
11:54 AM 45.0 °F 36.2 °F 36.0 °F 71% 30.05 in 10.0 mi North 24.2 mph 34.5 mph N/A   Overcast
12:54 PM 45.0 °F 36.0 °F 36.0 °F 71% 30.04 in 10.0 mi North 25.3 mph 35.7 mph N/A   Overcast
1:54 PM 45.0 °F 37.4 °F 35.1 °F 68% 30.04 in 10.0 mi North 18.4 mph 28.8 mph N/A   Overcast
2:54 PM 45.0 °F 38.5 °F 36.0 °F 71% 30.04 in 10.0 mi North 13.8 mph 23.0 mph 0.00 in Rain Light Rain
3:54 PM 44.1 °F 35.9 °F 37.0 °F 76% 30.04 in 10.0 mi North 19.6 mph 26.5 mph 0.00 in Rain Light Rain
4:02 PM 44.6 °F 37.4 °F 37.4 °F 76% 30.00 in 10.0 mi North 16.1 mph 26.5 mph 0.00 in Rain Light Rain
4:13 PM 44.6 °F 38.1 °F 37.4 °F 76% 29.99 in 10.0 mi North 13.8 mph 24.2 mph 0.01 in Rain Light Rain
4:54 PM 43.0 °F 36.0 °F 37.9 °F 82% 30.05 in 10.0 mi North 13.8 mph 21.9 mph 0.02 in Rain Light Rain
5:34 PM 41.0 °F 32.5 °F 37.4 °F 87% 30.01 in 8.0 mi North 17.3 mph 24.2 mph 0.01 in Rain Light Rain
5:54 PM 41.0 °F 32.8 °F 37.9 °F 89% 30.06 in 8.0 mi North 16.1 mph 26.5 mph 0.02 in Rain Light Rain
6:54 PM 41.0 °F 35.2 °F 37.9 °F 89% 30.06 in 10.0 mi North 9.2 mph - 0.01 in Rain Light Rain
7:09 PM 41.0 °F 34.3 °F 37.4 °F 87% 30.01 in 10.0 mi North 11.5 mph - 0.01 in Rain Light Rain
7:44 PM 42.8 °F 37.0 °F 35.6 °F 76% 30.03 in 10.0 mi North 10.4 mph - 0.01 in   Overcast
7:54 PM 42.1 °F 34.9 °F 36.0 °F 79% 30.08 in 10.0 mi North 13.8 mph - 0.01 in   Overcast
8:54 PM 42.1 °F 35.2 °F 33.1 °F 70% 30.07 in 10.0 mi North 12.7 mph - N/A   Overcast
9:54 PM 42.1 °F 33.6 °F 32.0 °F 67% 30.07 in 10.0 mi North 18.4 mph 32.2 mph N/A   Overcast
10:54 PM 42.1 °F 35.2 °F 32.0 °F 67% 30.07 in 10.0 mi North 12.7 mph 21.9 mph N/A   Overcast
11:54 PM 39.0 °F 31.4 °F 33.1 °F 79% 30.07 in 10.0 mi North 12.7 mph - 0.00 in Rain Light Rain